#datetime,building,power
2023-10-22T00:00:00,rvs,15.80
2023-10-22T00:01:00,rvs,17.74
2023-10-22T00:02:00,rvs,13.50
2023-10-22T00:03:00,rvs,10.87
2023-10-22T00:04:00,rvs,10.74
2023-10-22T00:05:00,rvs,17.24
2023-10-22T00:06:00,rvs,17.70
2023-10-22T00:07:00,rvs,12.69
2023-10-22T00:08:00,rvs,10.16
2023-10-22T00:09:00,rvs,10.06
2023-10-22T00:10:00,rvs,14.23
2023-10-22T00:11:00,rvs,10.44
2023-10-22T00:12:00,rvs,12.42
2023-10-22T00:13:00,rvs,9.86
2023-10-22T00:14:00,rvs,14.46
2023-10-22T00:15:00,rvs,14.84
2023-10-22T00:16:00,rvs,13.52
2023-10-22T00:17:00,rvs,13.33
2023-10-22T00:18:00,rvs,10.57
2023-10-22T00:19:00,rvs,10.16
2023-10-22T00:20:00,rvs,10.18
2023-10-22T00:21:00,rvs,10.25
2023-10-22T00:22:00,rvs,10.27
2023-10-22T00:23:00,rvs,10.44
2023-10-22T00:24:00,rvs,13.27
2023-10-22T00:25:00,rvs,11.25
2023-10-22T00:26:00,rvs,11.26
2023-10-22T00:27:00,rvs,10.44
2023-10-22T00:28:00,rvs,10.71
2023-10-22T00:29:00,rvs,13.25
2023-10-22T00:30:00,rvs,11.23
2023-10-22T00:31:00,rvs,10.86
2023-10-22T00:32:00,rvs,10.53
2023-10-22T00:33:00,rvs,10.50
2023-10-22T00:34:00,rvs,13.46
2023-10-22T00:35:00,rvs,9.92
2023-10-22T00:36:00,rvs,10.13
2023-10-22T00:37:00,rvs,10.07
2023-10-22T00:38:00,rvs,9.89
2023-10-22T00:39:00,rvs,9.91
2023-10-22T00:40:00,rvs,12.93
2023-10-22T00:41:00,rvs,14.00
2023-10-22T00:42:00,rvs,15.12
2023-10-22T00:43:00,rvs,20.98
2023-10-22T00:44:00,rvs,17.75
2023-10-22T00:45:00,rvs,14.88
2023-10-22T00:46:00,rvs,14.52
2023-10-22T00:47:00,rvs,15.40
2023-10-22T00:48:00,rvs,17.94
2023-10-22T00:49:00,rvs,15.01
2023-10-22T00:50:00,rvs,14.24
2023-10-22T00:51:00,rvs,16.73
2023-10-22T00:52:00,rvs,17.13
2023-10-22T00:53:00,rvs,18.86
2023-10-22T00:54:00,rvs,15.83
2023-10-22T00:55:00,rvs,16.20
2023-10-22T00:56:00,rvs,15.87
2023-10-22T00:57:00,rvs,15.86
2023-10-22T00:58:00,rvs,10.13
2023-10-22T00:59:00,rvs,10.00
2023-10-22T01:00:00,rvs,10.25
2023-10-22T01:01:00,rvs,10.45
2023-10-22T01:02:00,rvs,13.24
2023-10-22T01:03:00,rvs,10.14
2023-10-22T01:04:00,rvs,9.76
2023-10-22T01:05:00,rvs,9.82
2023-10-22T01:06:00,rvs,9.62
2023-10-22T01:07:00,rvs,11.67
2023-10-22T01:08:00,rvs,8.92
2023-10-22T01:09:00,rvs,9.05
2023-10-22T01:10:00,rvs,9.07
2023-10-22T01:11:00,rvs,9.10
2023-10-22T01:12:00,rvs,11.67
2023-10-22T01:13:00,rvs,9.03
2023-10-22T01:14:00,rvs,8.97
2023-10-22T01:15:00,rvs,8.92
2023-10-22T01:16:00,rvs,8.80
2023-10-22T01:17:00,rvs,11.41
2023-10-22T01:18:00,rvs,8.80
2023-10-22T01:19:00,rvs,9.04
2023-10-22T01:20:00,rvs,9.55
2023-10-22T01:21:00,rvs,12.44
2023-10-22T01:22:00,rvs,13.62
2023-10-22T01:23:00,rvs,13.99
2023-10-22T01:24:00,rvs,14.32
2023-10-22T01:25:00,rvs,29.02
2023-10-22T01:26:00,rvs,25.27
2023-10-22T01:27:00,rvs,14.12
2023-10-22T01:28:00,rvs,25.80
2023-10-22T01:29:00,rvs,25.92
2023-10-22T01:30:00,rvs,17.02
2023-10-22T01:31:00,rvs,16.57
2023-10-22T01:32:00,rvs,10.94
2023-10-22T01:33:00,rvs,11.01
2023-10-22T01:34:00,rvs,9.47
2023-10-22T01:35:00,rvs,11.92
2023-10-22T01:36:00,rvs,9.23
2023-10-22T01:37:00,rvs,11.05
2023-10-22T01:38:00,rvs,10.62
2023-10-22T01:39:00,rvs,11.02
2023-10-22T01:40:00,rvs,12.58
2023-10-22T01:41:00,rvs,10.17
2023-10-22T01:42:00,rvs,27.58
2023-10-22T01:43:00,rvs,12.28
2023-10-22T01:44:00,rvs,11.73
2023-10-22T01:45:00,rvs,14.12
2023-10-22T01:46:00,rvs,11.06
2023-10-22T01:47:00,rvs,11.15
2023-10-22T01:48:00,rvs,11.27
2023-10-22T01:49:00,rvs,11.30
2023-10-22T01:50:00,rvs,12.03
2023-10-22T01:51:00,rvs,11.04
2023-10-22T01:52:00,rvs,9.53
2023-10-22T01:53:00,rvs,10.81
2023-10-22T01:54:00,rvs,12.51
2023-10-22T01:55:00,rvs,10.64
2023-10-22T01:56:00,rvs,12.21
2023-10-22T01:57:00,rvs,9.61
2023-10-22T01:58:00,rvs,9.50
2023-10-22T01:59:00,rvs,9.51
2023-10-22T02:00:00,rvs,8.86
2023-10-22T02:01:00,rvs,8.77
2023-10-22T02:02:00,rvs,8.60
2023-10-22T02:03:00,rvs,8.50
2023-10-22T02:04:00,rvs,8.39
2023-10-22T02:05:00,rvs,8.35
2023-10-22T02:06:00,rvs,8.21
2023-10-22T02:07:00,rvs,8.43
2023-10-22T02:08:00,rvs,8.95
2023-10-22T02:09:00,rvs,9.98
2023-10-22T02:10:00,rvs,8.32
2023-10-22T02:11:00,rvs,8.86
2023-10-22T02:12:00,rvs,8.93
2023-10-22T02:13:00,rvs,8.92
2023-10-22T02:14:00,rvs,8.95
2023-10-22T02:15:00,rvs,8.96
2023-10-22T02:16:00,rvs,8.94
2023-10-22T02:17:00,rvs,8.82
2023-10-22T02:18:00,rvs,8.60
2023-10-22T02:19:00,rvs,8.57
2023-10-22T02:20:00,rvs,8.59
2023-10-22T02:21:00,rvs,8.62
2023-10-22T02:22:00,rvs,8.65
2023-10-22T02:23:00,rvs,8.51
2023-10-22T02:24:00,rvs,8.55
2023-10-22T02:25:00,rvs,9.01
2023-10-22T02:26:00,rvs,8.60
2023-10-22T02:27:00,rvs,8.56
2023-10-22T02:28:00,rvs,8.58
2023-10-22T02:29:00,rvs,9.00
2023-10-22T02:30:00,rvs,8.88
2023-10-22T02:31:00,rvs,9.51
2023-10-22T02:32:00,rvs,9.09
2023-10-22T02:33:00,rvs,9.16
2023-10-22T02:34:00,rvs,9.19
2023-10-22T02:35:00,rvs,9.29
2023-10-22T02:36:00,rvs,9.33
2023-10-22T02:37:00,rvs,8.92
2023-10-22T02:38:00,rvs,9.32
2023-10-22T02:39:00,rvs,9.25
2023-10-22T02:40:00,rvs,9.27
2023-10-22T02:41:00,rvs,9.31
2023-10-22T02:42:00,rvs,9.34
2023-10-22T02:43:00,rvs,9.29
2023-10-22T02:44:00,rvs,9.25
2023-10-22T02:45:00,rvs,9.06
2023-10-22T02:46:00,rvs,8.71
2023-10-22T02:47:00,rvs,8.79
2023-10-22T02:48:00,rvs,8.83
2023-10-22T02:49:00,rvs,8.41
2023-10-22T02:50:00,rvs,8.75
2023-10-22T02:51:00,rvs,8.54
2023-10-22T02:52:00,rvs,8.97
2023-10-22T02:53:00,rvs,8.97
2023-10-22T02:54:00,rvs,12.57
2023-10-22T02:55:00,rvs,13.86
2023-10-22T02:56:00,rvs,14.96
2023-10-22T02:57:00,rvs,15.19
2023-10-22T02:58:00,rvs,14.39
2023-10-22T02:59:00,rvs,13.44
2023-10-22T03:00:00,rvs,13.61
2023-10-22T03:01:00,rvs,13.31
2023-10-22T03:02:00,rvs,13.23
2023-10-22T03:03:00,rvs,12.94
2023-10-22T03:04:00,rvs,13.75
2023-10-22T03:05:00,rvs,13.91
2023-10-22T03:06:00,rvs,13.58
2023-10-22T03:07:00,rvs,7.74
2023-10-22T03:08:00,rvs,7.84
2023-10-22T03:09:00,rvs,8.11
2023-10-22T03:10:00,rvs,7.97
2023-10-22T03:11:00,rvs,7.86
2023-10-22T03:12:00,rvs,7.81
2023-10-22T03:13:00,rvs,7.93
2023-10-22T03:14:00,rvs,7.98
2023-10-22T03:15:00,rvs,7.93
2023-10-22T03:16:00,rvs,8.01
2023-10-22T03:17:00,rvs,7.78
2023-10-22T03:18:00,rvs,7.63
2023-10-22T03:19:00,rvs,10.26
2023-10-22T03:20:00,rvs,11.39
2023-10-22T03:21:00,rvs,13.02
2023-10-22T03:22:00,rvs,14.21
2023-10-22T03:23:00,rvs,13.57
2023-10-22T03:24:00,rvs,12.81
2023-10-22T03:25:00,rvs,12.39
2023-10-22T03:26:00,rvs,13.01
2023-10-22T03:27:00,rvs,13.87
2023-10-22T03:28:00,rvs,14.14
2023-10-22T03:29:00,rvs,14.51
2023-10-22T03:30:00,rvs,14.43
2023-10-22T03:31:00,rvs,14.31
2023-10-22T03:32:00,rvs,14.13
2023-10-22T03:33:00,rvs,14.56
2023-10-22T03:34:00,rvs,14.43
2023-10-22T03:35:00,rvs,27.50
2023-10-22T03:36:00,rvs,26.81
2023-10-22T03:37:00,rvs,20.92
2023-10-22T03:38:00,rvs,20.73
2023-10-22T03:39:00,rvs,8.16
2023-10-22T03:40:00,rvs,8.12
2023-10-22T03:41:00,rvs,7.83
2023-10-22T03:42:00,rvs,8.53
2023-10-22T03:43:00,rvs,7.58
2023-10-22T03:44:00,rvs,7.59
2023-10-22T03:45:00,rvs,7.75
2023-10-22T03:46:00,rvs,7.71
2023-10-22T03:47:00,rvs,7.69
2023-10-22T03:48:00,rvs,7.67
2023-10-22T03:49:00,rvs,7.50
2023-10-22T03:50:00,rvs,8.01
2023-10-22T03:51:00,rvs,7.92
2023-10-22T03:52:00,rvs,9.52
2023-10-22T03:53:00,rvs,9.22
2023-10-22T03:54:00,rvs,8.10
2023-10-22T03:55:00,rvs,9.13
2023-10-22T03:56:00,rvs,9.12
2023-10-22T03:57:00,rvs,11.58
2023-10-22T03:58:00,rvs,12.23
2023-10-22T03:59:00,rvs,12.73
2023-10-22T04:00:00,rvs,13.18
2023-10-22T04:01:00,rvs,13.63
2023-10-22T04:02:00,rvs,12.37
2023-10-22T04:03:00,rvs,12.36
2023-10-22T04:04:00,rvs,13.02
2023-10-22T04:05:00,rvs,15.52
2023-10-22T04:06:00,rvs,23.41
2023-10-22T04:07:00,rvs,24.73
2023-10-22T04:08:00,rvs,26.18
2023-10-22T04:09:00,rvs,21.69
2023-10-22T04:10:00,rvs,22.23
2023-10-22T04:11:00,rvs,16.48
2023-10-22T04:12:00,rvs,14.67
2023-10-22T04:13:00,rvs,21.18
2023-10-22T04:14:00,rvs,21.32
2023-10-22T04:15:00,rvs,21.22
2023-10-22T04:16:00,rvs,20.36
2023-10-22T04:17:00,rvs,21.33
2023-10-22T04:18:00,rvs,20.57
2023-10-22T04:19:00,rvs,16.96
2023-10-22T04:20:00,rvs,13.69
2023-10-22T04:21:00,rvs,13.65
2023-10-22T04:22:00,rvs,13.90
2023-10-22T04:23:00,rvs,14.04
2023-10-22T04:24:00,rvs,13.86
2023-10-22T04:25:00,rvs,13.99
2023-10-22T04:26:00,rvs,13.40
2023-10-22T04:27:00,rvs,13.61
2023-10-22T04:28:00,rvs,13.35
2023-10-22T04:29:00,rvs,13.32
2023-10-22T04:30:00,rvs,13.00
2023-10-22T04:31:00,rvs,13.02
2023-10-22T04:32:00,rvs,13.27
2023-10-22T04:33:00,rvs,13.02
2023-10-22T04:34:00,rvs,13.06
2023-10-22T04:35:00,rvs,13.02
2023-10-22T04:36:00,rvs,12.58
2023-10-22T04:37:00,rvs,12.61
2023-10-22T04:38:00,rvs,11.29
2023-10-22T04:39:00,rvs,8.22
2023-10-22T04:40:00,rvs,7.56
2023-10-22T04:41:00,rvs,7.50
2023-10-22T04:42:00,rvs,7.49
2023-10-22T04:43:00,rvs,7.49
2023-10-22T04:44:00,rvs,7.56
2023-10-22T04:45:00,rvs,7.59
2023-10-22T04:46:00,rvs,7.50
2023-10-22T04:47:00,rvs,7.66
2023-10-22T04:48:00,rvs,7.70
2023-10-22T04:49:00,rvs,8.11
2023-10-22T04:50:00,rvs,7.71
2023-10-22T04:51:00,rvs,8.18
2023-10-22T04:52:00,rvs,8.60
2023-10-22T04:53:00,rvs,7.69
2023-10-22T04:54:00,rvs,7.67
2023-10-22T04:55:00,rvs,7.70
2023-10-22T04:56:00,rvs,7.63
2023-10-22T04:57:00,rvs,7.65
2023-10-22T04:58:00,rvs,7.67
2023-10-22T04:59:00,rvs,7.69
2023-10-22T05:00:00,rvs,23.20
2023-10-22T05:01:00,rvs,7.65
2023-10-22T05:02:00,rvs,7.52
2023-10-22T05:03:00,rvs,7.42
2023-10-22T05:04:00,rvs,7.39
2023-10-22T05:05:00,rvs,7.45
2023-10-22T05:06:00,rvs,7.49
2023-10-22T05:07:00,rvs,7.64
2023-10-22T05:08:00,rvs,7.55
2023-10-22T05:09:00,rvs,8.07
2023-10-22T05:10:00,rvs,9.30
2023-10-22T05:11:00,rvs,9.32
2023-10-22T05:12:00,rvs,9.56
2023-10-22T05:13:00,rvs,9.47
2023-10-22T05:14:00,rvs,12.17
2023-10-22T05:15:00,rvs,13.45
2023-10-22T05:16:00,rvs,15.37
2023-10-22T05:17:00,rvs,19.86
2023-10-22T05:18:00,rvs,23.04
2023-10-22T05:19:00,rvs,24.35
2023-10-22T05:20:00,rvs,34.45
2023-10-22T05:21:00,rvs,35.20
2023-10-22T05:22:00,rvs,36.39
2023-10-22T05:23:00,rvs,35.09
2023-10-22T05:24:00,rvs,24.70
2023-10-22T05:25:00,rvs,27.59
2023-10-22T05:26:00,rvs,25.66
2023-10-22T05:27:00,rvs,25.37
2023-10-22T05:28:00,rvs,26.62
2023-10-22T05:29:00,rvs,25.78
2023-10-22T05:30:00,rvs,26.67
2023-10-22T05:31:00,rvs,20.67
2023-10-22T05:32:00,rvs,22.14
2023-10-22T05:33:00,rvs,22.77
2023-10-22T05:34:00,rvs,21.73
2023-10-22T05:35:00,rvs,22.25
2023-10-22T05:36:00,rvs,23.11
2023-10-22T05:37:00,rvs,22.61
2023-10-22T05:38:00,rvs,17.09
2023-10-22T05:39:00,rvs,16.64
2023-10-22T05:40:00,rvs,16.59
2023-10-22T05:41:00,rvs,16.44
2023-10-22T05:42:00,rvs,16.24
2023-10-22T05:43:00,rvs,16.31
2023-10-22T05:44:00,rvs,6.99
2023-10-22T05:45:00,rvs,7.16
2023-10-22T05:46:00,rvs,7.32
2023-10-22T05:47:00,rvs,7.67
2023-10-22T05:48:00,rvs,8.28
2023-10-22T05:49:00,rvs,8.66
2023-10-22T05:50:00,rvs,8.50
2023-10-22T05:51:00,rvs,8.11
2023-10-22T05:52:00,rvs,8.11
2023-10-22T05:53:00,rvs,8.24
2023-10-22T05:54:00,rvs,8.13
2023-10-22T05:55:00,rvs,8.41
2023-10-22T05:56:00,rvs,8.08
2023-10-22T05:57:00,rvs,8.22
2023-10-22T05:58:00,rvs,7.79
2023-10-22T05:59:00,rvs,11.18
2023-10-22T06:00:00,rvs,11.36
2023-10-22T06:01:00,rvs,11.71
2023-10-22T06:02:00,rvs,12.52
2023-10-22T06:03:00,rvs,12.88
2023-10-22T06:04:00,rvs,10.19
2023-10-22T06:05:00,rvs,10.63
2023-10-22T06:06:00,rvs,11.69
2023-10-22T06:07:00,rvs,12.99
2023-10-22T06:08:00,rvs,26.81
2023-10-22T06:09:00,rvs,29.28
2023-10-22T06:10:00,rvs,29.79
2023-10-22T06:11:00,rvs,31.55
2023-10-22T06:12:00,rvs,20.08
2023-10-22T06:13:00,rvs,21.42
2023-10-22T06:14:00,rvs,24.91
2023-10-22T06:15:00,rvs,33.99
2023-10-22T06:16:00,rvs,34.27
2023-10-22T06:17:00,rvs,34.44
2023-10-22T06:18:00,rvs,33.82
2023-10-22T06:19:00,rvs,14.24
2023-10-22T06:20:00,rvs,11.22
2023-10-22T06:21:00,rvs,11.90
2023-10-22T06:22:00,rvs,13.01
2023-10-22T06:23:00,rvs,14.95
2023-10-22T06:24:00,rvs,15.25
2023-10-22T06:25:00,rvs,17.21
2023-10-22T06:26:00,rvs,13.68
2023-10-22T06:27:00,rvs,18.97
2023-10-22T06:28:00,rvs,18.10
2023-10-22T06:29:00,rvs,16.73
2023-10-22T06:30:00,rvs,17.25
2023-10-22T06:31:00,rvs,17.63
2023-10-22T06:32:00,rvs,17.75
2023-10-22T06:33:00,rvs,17.82
2023-10-22T06:34:00,rvs,18.31
2023-10-22T06:35:00,rvs,17.61
2023-10-22T06:36:00,rvs,17.72
2023-10-22T06:37:00,rvs,17.27
2023-10-22T06:38:00,rvs,16.98
2023-10-22T06:39:00,rvs,17.20
2023-10-22T06:40:00,rvs,16.81
2023-10-22T06:41:00,rvs,17.48
2023-10-22T06:42:00,rvs,17.24
2023-10-22T06:43:00,rvs,16.98
2023-10-22T06:44:00,rvs,16.93
2023-10-22T06:45:00,rvs,17.00
2023-10-22T06:46:00,rvs,16.88
2023-10-22T06:47:00,rvs,16.95
2023-10-22T06:48:00,rvs,16.94
2023-10-22T06:49:00,rvs,16.85
2023-10-22T06:50:00,rvs,7.24
2023-10-22T06:51:00,rvs,7.37
2023-10-22T06:52:00,rvs,7.41
2023-10-22T06:53:00,rvs,7.34
2023-10-22T06:54:00,rvs,8.06
2023-10-22T06:55:00,rvs,8.00
2023-10-22T06:56:00,rvs,8.01
2023-10-22T06:57:00,rvs,7.79
2023-10-22T06:58:00,rvs,7.66
2023-10-22T06:59:00,rvs,7.64
2023-10-22T07:00:00,rvs,7.89
2023-10-22T07:01:00,rvs,7.95
2023-10-22T07:02:00,rvs,7.93
2023-10-22T07:03:00,rvs,7.84
2023-10-22T07:04:00,rvs,7.90
2023-10-22T07:05:00,rvs,8.09
2023-10-22T07:06:00,rvs,8.04
2023-10-22T07:07:00,rvs,8.25
2023-10-22T07:08:00,rvs,8.44
2023-10-22T07:09:00,rvs,8.10
2023-10-22T07:10:00,rvs,8.45
2023-10-22T07:11:00,rvs,7.67
2023-10-22T07:12:00,rvs,7.18
2023-10-22T07:13:00,rvs,7.20
2023-10-22T07:14:00,rvs,7.18
2023-10-22T07:15:00,rvs,7.10
2023-10-22T07:16:00,rvs,7.08
2023-10-22T07:17:00,rvs,7.00
2023-10-22T07:18:00,rvs,7.09
2023-10-22T07:19:00,rvs,7.22
2023-10-22T07:20:00,rvs,7.05
2023-10-22T07:21:00,rvs,7.06
2023-10-22T07:22:00,rvs,6.97
2023-10-22T07:23:00,rvs,10.46
2023-10-22T07:24:00,rvs,10.92
2023-10-22T07:25:00,rvs,11.35
2023-10-22T07:26:00,rvs,11.87
2023-10-22T07:27:00,rvs,13.04
2023-10-22T07:28:00,rvs,13.45
2023-10-22T07:29:00,rvs,12.89
2023-10-22T07:30:00,rvs,13.34
2023-10-22T07:31:00,rvs,13.32
2023-10-22T07:32:00,rvs,13.14
2023-10-22T07:33:00,rvs,13.00
2023-10-22T07:34:00,rvs,12.76
2023-10-22T07:35:00,rvs,13.47
2023-10-22T07:36:00,rvs,13.37
2023-10-22T07:37:00,rvs,8.25
2023-10-22T07:38:00,rvs,8.02
2023-10-22T07:39:00,rvs,8.91
2023-10-22T07:40:00,rvs,7.25
2023-10-22T07:41:00,rvs,9.87
2023-10-22T07:42:00,rvs,10.87
2023-10-22T07:43:00,rvs,11.85
2023-10-22T07:44:00,rvs,14.77
2023-10-22T07:45:00,rvs,14.67
2023-10-22T07:46:00,rvs,13.34
2023-10-22T07:47:00,rvs,12.68
2023-10-22T07:48:00,rvs,13.63
2023-10-22T07:49:00,rvs,13.02
2023-10-22T07:50:00,rvs,13.08
2023-10-22T07:51:00,rvs,12.86
2023-10-22T07:52:00,rvs,15.24
2023-10-22T07:53:00,rvs,24.09
2023-10-22T07:54:00,rvs,26.34
2023-10-22T07:55:00,rvs,21.14
2023-10-22T07:56:00,rvs,28.82
2023-10-22T07:57:00,rvs,28.08
2023-10-22T07:58:00,rvs,24.07
2023-10-22T07:59:00,rvs,31.82
2023-10-22T08:00:00,rvs,30.25
2023-10-22T08:01:00,rvs,31.30
2023-10-22T08:02:00,rvs,31.59
2023-10-22T08:03:00,rvs,30.85
2023-10-22T08:04:00,rvs,23.73
2023-10-22T08:05:00,rvs,30.86
2023-10-22T08:06:00,rvs,23.67
2023-10-22T08:07:00,rvs,24.06
2023-10-22T08:08:00,rvs,30.58
2023-10-22T08:09:00,rvs,23.96
2023-10-22T08:10:00,rvs,24.71
2023-10-22T08:11:00,rvs,24.31
2023-10-22T08:12:00,rvs,23.76
2023-10-22T08:13:00,rvs,30.66
2023-10-22T08:14:00,rvs,30.93
2023-10-22T08:15:00,rvs,25.02
2023-10-22T08:16:00,rvs,25.33
2023-10-22T08:17:00,rvs,25.32
2023-10-22T08:18:00,rvs,25.56
2023-10-22T08:19:00,rvs,25.09
2023-10-22T08:20:00,rvs,25.20
2023-10-22T08:21:00,rvs,25.32
2023-10-22T08:22:00,rvs,18.35
2023-10-22T08:23:00,rvs,25.52
2023-10-22T08:24:00,rvs,23.16
2023-10-22T08:25:00,rvs,18.00
2023-10-22T08:26:00,rvs,18.17
2023-10-22T08:27:00,rvs,18.04
2023-10-22T08:28:00,rvs,18.15
2023-10-22T08:29:00,rvs,18.29
2023-10-22T08:30:00,rvs,7.94
2023-10-22T08:31:00,rvs,7.90
2023-10-22T08:32:00,rvs,7.80
2023-10-22T08:33:00,rvs,27.13
2023-10-22T08:34:00,rvs,7.56
2023-10-22T08:35:00,rvs,7.46
2023-10-22T08:36:00,rvs,9.60
2023-10-22T08:37:00,rvs,8.21
2023-10-22T08:38:00,rvs,8.20
2023-10-22T08:39:00,rvs,7.11
2023-10-22T08:40:00,rvs,7.03
2023-10-22T08:41:00,rvs,7.01
2023-10-22T08:42:00,rvs,6.95
2023-10-22T08:43:00,rvs,6.78
2023-10-22T08:44:00,rvs,6.82
2023-10-22T08:45:00,rvs,6.87
2023-10-22T08:46:00,rvs,7.05
2023-10-22T08:47:00,rvs,7.31
2023-10-22T08:48:00,rvs,7.13
2023-10-22T08:49:00,rvs,7.08
2023-10-22T08:50:00,rvs,7.48
2023-10-22T08:51:00,rvs,7.45
2023-10-22T08:52:00,rvs,7.34
2023-10-22T08:53:00,rvs,7.45
2023-10-22T08:54:00,rvs,7.36
2023-10-22T08:55:00,rvs,7.08
2023-10-22T08:56:00,rvs,7.50
2023-10-22T08:57:00,rvs,11.09
2023-10-22T08:58:00,rvs,11.84
2023-10-22T08:59:00,rvs,12.05
2023-10-22T09:00:00,rvs,12.48
2023-10-22T09:01:00,rvs,13.33
2023-10-22T09:02:00,rvs,15.64
2023-10-22T09:03:00,rvs,16.30
2023-10-22T09:04:00,rvs,17.78
2023-10-22T09:05:00,rvs,20.98
2023-10-22T09:06:00,rvs,20.08
2023-10-22T09:07:00,rvs,18.64
2023-10-22T09:08:00,rvs,17.87
2023-10-22T09:09:00,rvs,18.61
2023-10-22T09:10:00,rvs,19.05
2023-10-22T09:11:00,rvs,20.11
2023-10-22T09:12:00,rvs,19.68
2023-10-22T09:13:00,rvs,36.23
2023-10-22T09:14:00,rvs,35.37
2023-10-22T09:15:00,rvs,35.94
2023-10-22T09:16:00,rvs,35.20
2023-10-22T09:17:00,rvs,13.55
2023-10-22T09:18:00,rvs,12.44
2023-10-22T09:19:00,rvs,12.73
2023-10-22T09:20:00,rvs,27.49
2023-10-22T09:21:00,rvs,29.46
2023-10-22T09:22:00,rvs,26.33
2023-10-22T09:23:00,rvs,30.30
2023-10-22T09:24:00,rvs,32.05
2023-10-22T09:25:00,rvs,21.12
2023-10-22T09:26:00,rvs,21.86
2023-10-22T09:27:00,rvs,24.77
2023-10-22T09:28:00,rvs,24.22
2023-10-22T09:29:00,rvs,25.14
2023-10-22T09:30:00,rvs,25.27
2023-10-22T09:31:00,rvs,32.66
2023-10-22T09:32:00,rvs,25.10
2023-10-22T09:33:00,rvs,13.50
2023-10-22T09:34:00,rvs,13.54
2023-10-22T09:35:00,rvs,13.45
2023-10-22T09:36:00,rvs,13.53
2023-10-22T09:37:00,rvs,13.19
2023-10-22T09:38:00,rvs,14.49
2023-10-22T09:39:00,rvs,14.48
2023-10-22T09:40:00,rvs,14.45
2023-10-22T09:41:00,rvs,14.63
2023-10-22T09:42:00,rvs,14.76
2023-10-22T09:43:00,rvs,8.61
2023-10-22T09:44:00,rvs,8.70
2023-10-22T09:45:00,rvs,8.96
2023-10-22T09:46:00,rvs,8.85
2023-10-22T09:47:00,rvs,9.14
2023-10-22T09:48:00,rvs,9.61
2023-10-22T09:49:00,rvs,9.24
2023-10-22T09:50:00,rvs,12.21
2023-10-22T09:51:00,rvs,9.56
2023-10-22T09:52:00,rvs,12.35
2023-10-22T09:53:00,rvs,10.38
2023-10-22T09:54:00,rvs,14.89
2023-10-22T09:55:00,rvs,16.21
2023-10-22T09:56:00,rvs,26.19
2023-10-22T09:57:00,rvs,26.62
2023-10-22T09:58:00,rvs,18.47
2023-10-22T09:59:00,rvs,23.84
2023-10-22T10:00:00,rvs,16.41
2023-10-22T10:01:00,rvs,19.29
2023-10-22T10:02:00,rvs,15.27
2023-10-22T10:03:00,rvs,17.10
2023-10-22T10:04:00,rvs,17.48
2023-10-22T10:05:00,rvs,23.91
2023-10-22T10:06:00,rvs,16.22
2023-10-22T10:07:00,rvs,16.05
2023-10-22T10:08:00,rvs,15.87
2023-10-22T10:09:00,rvs,17.88
2023-10-22T10:10:00,rvs,16.19
2023-10-22T10:11:00,rvs,16.01
2023-10-22T10:12:00,rvs,16.34
2023-10-22T10:13:00,rvs,16.65
2023-10-22T10:14:00,rvs,16.38
2023-10-22T10:15:00,rvs,16.24
2023-10-22T10:16:00,rvs,16.42
2023-10-22T10:17:00,rvs,16.20
2023-10-22T10:18:00,rvs,16.48
2023-10-22T10:19:00,rvs,16.25
2023-10-22T10:20:00,rvs,17.35
2023-10-22T10:21:00,rvs,15.65
2023-10-22T10:22:00,rvs,18.58
2023-10-22T10:23:00,rvs,20.28
2023-10-22T10:24:00,rvs,20.39
2023-10-22T10:25:00,rvs,29.63
2023-10-22T10:26:00,rvs,22.07
2023-10-22T10:27:00,rvs,25.59
2023-10-22T10:28:00,rvs,24.98
2023-10-22T10:29:00,rvs,26.21
2023-10-22T10:30:00,rvs,27.13
2023-10-22T10:31:00,rvs,25.25
2023-10-22T10:32:00,rvs,23.58
2023-10-22T10:33:00,rvs,26.76
2023-10-22T10:34:00,rvs,27.96
2023-10-22T10:35:00,rvs,28.91
2023-10-22T10:36:00,rvs,36.82
2023-10-22T10:37:00,rvs,29.85
2023-10-22T10:38:00,rvs,29.00
2023-10-22T10:39:00,rvs,28.86
2023-10-22T10:40:00,rvs,29.48
2023-10-22T10:41:00,rvs,32.77
2023-10-22T10:42:00,rvs,34.10
2023-10-22T10:43:00,rvs,30.05
2023-10-22T10:44:00,rvs,31.88
2023-10-22T10:45:00,rvs,33.56
2023-10-22T10:46:00,rvs,33.95
2023-10-22T10:47:00,rvs,33.72
2023-10-22T10:48:00,rvs,27.91
2023-10-22T10:49:00,rvs,27.16
2023-10-22T10:50:00,rvs,26.82
2023-10-22T10:51:00,rvs,22.66
2023-10-22T10:52:00,rvs,23.65
2023-10-22T10:53:00,rvs,23.23
2023-10-22T10:54:00,rvs,22.83
2023-10-22T10:55:00,rvs,22.30
2023-10-22T10:56:00,rvs,22.74
2023-10-22T10:57:00,rvs,22.63
2023-10-22T10:58:00,rvs,23.11
2023-10-22T10:59:00,rvs,17.03
2023-10-22T11:00:00,rvs,16.99
2023-10-22T11:01:00,rvs,17.73
2023-10-22T11:02:00,rvs,17.52
2023-10-22T11:03:00,rvs,17.55
2023-10-22T11:04:00,rvs,17.60
2023-10-22T11:05:00,rvs,17.84
2023-10-22T11:06:00,rvs,17.88
2023-10-22T11:07:00,rvs,17.77
2023-10-22T11:08:00,rvs,17.92
2023-10-22T11:09:00,rvs,17.63
2023-10-22T11:10:00,rvs,17.60
2023-10-22T11:11:00,rvs,26.31
2023-10-22T11:12:00,rvs,26.27
2023-10-22T11:13:00,rvs,26.26
2023-10-22T11:14:00,rvs,25.92
2023-10-22T11:15:00,rvs,13.57
2023-10-22T11:16:00,rvs,13.63
2023-10-22T11:17:00,rvs,13.75
2023-10-22T11:18:00,rvs,13.88
2023-10-22T11:19:00,rvs,14.16
2023-10-22T11:20:00,rvs,13.68
2023-10-22T11:21:00,rvs,9.46
2023-10-22T11:22:00,rvs,9.34
2023-10-22T11:23:00,rvs,12.98
2023-10-22T11:24:00,rvs,13.32
2023-10-22T11:25:00,rvs,13.23
2023-10-22T11:26:00,rvs,9.31
2023-10-22T11:27:00,rvs,8.83
2023-10-22T11:28:00,rvs,8.92
2023-10-22T11:29:00,rvs,12.00
2023-10-22T11:30:00,rvs,12.07
2023-10-22T11:31:00,rvs,12.40
2023-10-22T11:32:00,rvs,8.37
2023-10-22T11:33:00,rvs,8.37
2023-10-22T11:34:00,rvs,8.12
2023-10-22T11:35:00,rvs,12.33
2023-10-22T11:36:00,rvs,8.21
2023-10-22T11:37:00,rvs,9.26
2023-10-22T11:38:00,rvs,9.35
2023-10-22T11:39:00,rvs,8.25
2023-10-22T11:40:00,rvs,8.17
2023-10-22T11:41:00,rvs,8.77
2023-10-22T11:42:00,rvs,8.89
2023-10-22T11:43:00,rvs,8.63
2023-10-22T11:44:00,rvs,8.20
2023-10-22T11:45:00,rvs,8.07
2023-10-22T11:46:00,rvs,14.05
2023-10-22T11:47:00,rvs,13.99
2023-10-22T11:48:00,rvs,12.85
2023-10-22T11:49:00,rvs,13.29
2023-10-22T11:50:00,rvs,13.39
2023-10-22T11:51:00,rvs,13.38
2023-10-22T11:52:00,rvs,16.67
2023-10-22T11:53:00,rvs,17.79
2023-10-22T11:54:00,rvs,18.55
2023-10-22T11:55:00,rvs,19.21
2023-10-22T11:56:00,rvs,19.31
2023-10-22T11:57:00,rvs,23.35
2023-10-22T11:58:00,rvs,26.07
2023-10-22T11:59:00,rvs,26.60
2023-10-22T12:00:00,rvs,31.20
2023-10-22T12:01:00,rvs,34.06
2023-10-22T12:02:00,rvs,26.73
2023-10-22T12:03:00,rvs,29.21
2023-10-22T12:04:00,rvs,32.13
2023-10-22T12:05:00,rvs,30.92
2023-10-22T12:06:00,rvs,30.91
2023-10-22T12:07:00,rvs,30.47
2023-10-22T12:08:00,rvs,34.48
2023-10-22T12:09:00,rvs,36.66
2023-10-22T12:10:00,rvs,36.94
2023-10-22T12:11:00,rvs,37.02
2023-10-22T12:12:00,rvs,34.97
2023-10-22T12:13:00,rvs,27.09
2023-10-22T12:14:00,rvs,43.68
2023-10-22T12:15:00,rvs,28.64
2023-10-22T12:16:00,rvs,28.13
2023-10-22T12:17:00,rvs,28.42
2023-10-22T12:18:00,rvs,23.34
2023-10-22T12:19:00,rvs,23.32
2023-10-22T12:20:00,rvs,22.73
2023-10-22T12:21:00,rvs,23.11
2023-10-22T12:22:00,rvs,19.29
2023-10-22T12:23:00,rvs,15.14
2023-10-22T12:24:00,rvs,14.21
2023-10-22T12:25:00,rvs,8.72
2023-10-22T12:26:00,rvs,12.54
2023-10-22T12:27:00,rvs,12.56
2023-10-22T12:28:00,rvs,16.34
2023-10-22T12:29:00,rvs,13.49
2023-10-22T12:30:00,rvs,14.65
2023-10-22T12:31:00,rvs,16.54
2023-10-22T12:32:00,rvs,16.03
2023-10-22T12:33:00,rvs,14.01
2023-10-22T12:34:00,rvs,13.14
2023-10-22T12:35:00,rvs,14.11
2023-10-22T12:36:00,rvs,14.33
2023-10-22T12:37:00,rvs,14.22
2023-10-22T12:38:00,rvs,14.71
2023-10-22T12:39:00,rvs,17.73
2023-10-22T12:40:00,rvs,14.13
2023-10-22T12:41:00,rvs,15.61
2023-10-22T12:42:00,rvs,18.72
2023-10-22T12:43:00,rvs,19.92
2023-10-22T12:44:00,rvs,21.07
2023-10-22T12:45:00,rvs,21.86
2023-10-22T12:46:00,rvs,16.79
2023-10-22T12:47:00,rvs,17.60
2023-10-22T12:48:00,rvs,35.83
2023-10-22T12:49:00,rvs,17.12
2023-10-22T12:50:00,rvs,30.18
2023-10-22T12:51:00,rvs,27.82
2023-10-22T12:52:00,rvs,29.68
2023-10-22T12:53:00,rvs,29.31
2023-10-22T12:54:00,rvs,16.73
2023-10-22T12:55:00,rvs,15.89
2023-10-22T12:56:00,rvs,17.15
2023-10-22T12:57:00,rvs,16.61
2023-10-22T12:58:00,rvs,16.46
2023-10-22T12:59:00,rvs,16.28
2023-10-22T13:00:00,rvs,14.64
2023-10-22T13:01:00,rvs,30.44
2023-10-22T13:02:00,rvs,17.16
2023-10-22T13:03:00,rvs,17.70
2023-10-22T13:04:00,rvs,9.22
2023-10-22T13:05:00,rvs,9.99
2023-10-22T13:06:00,rvs,10.21
2023-10-22T13:07:00,rvs,10.20
2023-10-22T13:08:00,rvs,10.83
2023-10-22T13:09:00,rvs,10.74
2023-10-22T13:10:00,rvs,10.19
2023-10-22T13:11:00,rvs,12.41
2023-10-22T13:12:00,rvs,13.43
2023-10-22T13:13:00,rvs,14.50
2023-10-22T13:14:00,rvs,19.39
2023-10-22T13:15:00,rvs,19.24
2023-10-22T13:16:00,rvs,21.08
2023-10-22T13:17:00,rvs,43.18
2023-10-22T13:18:00,rvs,26.19
2023-10-22T13:19:00,rvs,26.75
2023-10-22T13:20:00,rvs,27.04
2023-10-22T13:21:00,rvs,21.45
2023-10-22T13:22:00,rvs,24.57
2023-10-22T13:23:00,rvs,25.35
2023-10-22T13:24:00,rvs,26.40
2023-10-22T13:25:00,rvs,28.40
2023-10-22T13:26:00,rvs,26.81